Regional Weather Roundup
Issued by NWS

Home | Current Version | Previous Version | Graphics & Text | Print | Product List | Glossary On
Versions: 1 2 3 4 5 6 7 8 9 10 11 12 13 14 15 16 17 18 19 20 21 22 23 24 25 26 27 28 29 30 31 32 33 34 35 36 37 38 39 40 41 42 43 44 45 46 47 48 49 50
000
ASUS43 KLSX 211559
RWRMO

WEATHER SUMMARY FOR MISSOURI
NATIONAL WEATHER SERVICE SPRINGFIELD MO
1100 AM CDT THU AUG 21 2014

NOTE: "FAIR" INDICATES FEW OR NO CLOUDS BELOW 12,000 FEET WITH NO
       SIGNIFICANT WEATHER AND/OR OBSTRUCTIONS TO VISIBILITY.
       CURRENT SKY AND/OR WEATHER CONDITIONS ARE NOT AVAILABLE FOR
       CHILLICOTHE AND FARMINGTON.

MOZ001>031-035>038-043-044-053-054-211700-
...NORTHERN AND WESTERN MISSOURI...

CITY           SKY/WX    TMP DP  RH WIND       PRES   REMARKS
KANSAS CTY INT CLOUDY    85  73  67 S16       29.92R HX  91
KANSAS C DTWN  PTSUNNY   86  71  60 SW16      29.91S HX  91
LEE`S SUMMIT   SUNNY     85  72  65 SW12G23   29.95R HX  91
ST JOSEPH      CLOUDY    82  74  76 S8        29.90R
KIRKSVILLE     SUNNY     85  72  65 SW14G21   29.95R HX  91

$$
MOZ066>068-077>081-088>096-101>105-211700-
...SOUTHWEST MISSOURI...

CITY           SKY/WX    TMP DP  RH WIND       PRES   REMARKS
SPRINGFIELD    SUNNY     88  70  55 SW17      30.04R HX  93
JOPLIN         SUNNY     88  71  57 SW18      30.01S HX  94

$$
MOZ032>034-039>042-045>050-055>058-069>072-211700-
...CENTRAL MISSOURI...

CITY           SKY/WX    TMP DP  RH WIND       PRES   REMARKS
COLUMBIA       MOSUNNY   85  73  67 SW16      29.99S HX  91
JEFFERSON CITY MOSUNNY   85  73  67 S5        29.99R HX  91
ROLLA          SUNNY     85  72  65 SW13      30.03S HX  91
SEDALIA        MOSUNNY   86  72  62 SW20G25   29.98R HX  92
OSAGE BEACH    SUNNY     88  72  58 SW14      30.01S HX  94

$$
MOZ051-052-059>065-211700-
...EAST CENTRAL MISSOURI...

CITY           SKY/WX    TMP DP  RH WIND       PRES   REMARKS
ST LOUIS INTL  PTSUNNY   87  73  62 SW12      30.02R HX  94
SPIRIT OF STL  MOSUNNY   85  73  67 SW9       30.00R HX  91
ST CHARLES     MOSUNNY   85  73  67 SW12      30.00R HX  91

$$
MOZ072>076-082>087-097>100-106>115-211700-
...SOUTH CENTRAL AND SOUTHEAST MISSOURI...

CITY           SKY/WX    TMP DP  RH WIND       PRES   REMARKS
CAPE GIRARDEAU SUNNY     87  75  67 SW8       30.06S HX  96
FARMINGTON     SUNNY     88  72  58 W7        30.08S HX  94
POPLAR BLUFF   SUNNY     87  71  58 SW9       30.05S HX  93
WEST PLAINS    SUNNY     85  71  63 SW12      30.09S HX  90

$$


USA.gov is the U.S. government's official web portal to all federal, state and local government web resources and services.